Location: Unspecified
(0.0000°N, 0.0000°E)
Time: 03:14:25
(UTC+00:00)

Traac - Visible Passes

Search period start: 15 December 2025 00:00
Search period end: 25 December 2025 00:00
Orbit: 951 x 1102 km, 32.4° (Epoch: 14 December)

Date Brightness Start Highest point End Pass type
(mag) Time Alt. Az. Time Alt. Az. Time Alt. Az.
15 Dec 9.7 04:19:14 16° N 04:23:00 24° NNE 04:28:36 10° E visible
15 Dec 9.3 19:27:27 10° W 19:32:46 27° NNW 19:35:28 20° N visible
16 Dec 10.3 03:12:35 13° NE 03:12:35 13° NE 03:14:32 10° NE visible
16 Dec 8.8 04:58:13 13° NW 05:04:25 52° NE 05:11:26 10° ESE visible
16 Dec 8.6 18:15:21 10° WSW 18:21:37 51° NW 18:27:48 10° NE visible
16 Dec 10.2 20:12:26 10° NW 20:14:24 11° NNW 20:14:28 11° NNW visible
17 Dec 9.4 03:51:35 27° NNE 03:53:07 29° NNE 03:59:10 10° E visible
17 Dec 9.7 18:58:11 10° W 19:02:59 22° NNW 19:07:45 10° NNE visible
18 Dec 10.5 02:44:56 12° ENE 02:44:56 12° ENE 02:45:46 10° ENE visible
18 Dec 8.4 04:30:34 28° NW 04:34:28 64° NE 04:41:37 10° ESE visible
19 Dec 9.2 03:23:55 35° NE 03:23:55 35° NE 03:29:37 10° E visible
19 Dec 8.5 05:09:34 13° WNW 05:15:45 59° SW 05:22:51 10° SE visible
19 Dec 9.9 18:29:05 10° WNW 18:33:13 17° NNW 18:37:20 10° N visible
20 Dec 8.1 04:02:53 56° NW 04:04:31 79° NE 04:11:43 10° ESE visible
21 Dec 9.6 02:56:12 29° E 02:56:12 29° E 02:59:57 10° ESE visible
21 Dec 8.7 04:41:50 24° W 04:45:49 47° SW 04:52:41 10° SE visible
22 Dec 8.1 03:35:07 77° SSE 03:35:07 77° SSE 03:41:43 10° SE visible
22 Dec 9.8 05:22:07 10° WSW 05:27:20 22° SSW 05:32:40 10° SSE visible
23 Dec 10.3 02:28:22 19° ESE 02:28:22 19° ESE 02:30:12 10° ESE visible
23 Dec 8.9 04:14:00 32° WSW 04:15:55 38° SSW 04:22:27 10° SSE visible
24 Dec 9.1 03:07:13 41° SE 03:07:13 41° SE 03:11:40 10° SE visible
24 Dec 10.0 04:53:05 10° WSW 04:57:31 18° SSW 05:02:04 10° S visible
